EW3000 Weather Reports


Display with metric or nautical units.
time (UTC)temp
F
wind
direction
speed
MPH
gust
MPH
rain 1hr
in
rain 24hr
in
rain mn
in
humidity
%
barometer
mb
20200712062900 71 5 0.0 0.0 0.00 0.00 0.00 79 1008.5
20200712062352 71 5 0.0 0.0 0.00 0.00 0.00 79 1008.6
20200712061842 71 5 0.0 0.0 0.00 0.00 0.00 79 1008.6
20200712061358 71 5 0.0 2.0 0.00 0.00 0.00 79 1008.6
20200712060853 71 5 0.0 6.0 0.00 0.00 0.00 79 1008.6
20200712060346 71 5 0.0 6.0 0.00 0.00 0.00 80 1008.6
20200712055852 71 360 0.0 5.0 0.00 0.00 0.00 81 1008.6
20200712055346 71 5 0.0 5.0 0.00 0.00 0.00 80 1008.6
20200712054843 72 5 0.0 5.0 0.00 0.00 0.00 80 1008.7
20200712054339 72 5 0.0 1.0 0.00 0.00 0.00 80 1008.7
20200712053856 72 5 0.0 3.0 0.00 0.00 0.00 80 1008.8
20200712053354 72 5 0.0 3.0 0.00 0.00 0.00 80 1008.8
20200712052901 72 5 0.0 3.0 0.00 0.00 0.00 79 1008.8
20200712052349 72 5 0.0 1.0 0.00 0.00 0.00 79 1008.8
20200712051842 72 5 0.0 1.0 0.00 0.00 0.00 79 1008.7
20200712051357 72 5 0.0 4.0 0.00 0.00 0.00 78 1008.7
20200712050854 72 5 1.0 3.0 0.00 0.00 0.00 78 1008.7
20200712050353 72 5 0.0 4.0 0.00 0.00 0.00 78 1008.7
20200712045902 72 5 0.0 3.0 0.00 0.00 0.00 78 1008.6
20200712045351 73 5 1.0 4.0 0.00 0.00 0.00 78 1008.7
20200712044848 73 5 1.0 5.0 0.00 0.00 0.00 79 1008.7
20200712044343 73 360 1.0 4.0 0.00 0.00 0.00 79 1008.7
20200712043856 73 5 0.0 4.0 0.00 0.00 0.00 79 1008.7
20200712043351 73 5 0.0 6.0 0.00 0.00 0.00 79 1008.7
20200712042900 73 5 0.0 6.0 0.00 0.00 0.00 79 1008.8
20200712042356 73 5 0.0 6.0 0.00 0.00 0.00 79 1008.8
20200712041848 73 5 1.0 5.0 0.00 0.00 0.00 79 1008.8
20200712041403 73 5 0.0 7.0 0.00 0.00 0.00 79 1008.8
20200712040854 72 5 1.0 7.0 0.00 0.00 0.00 80 1008.7
20200712040355 72 5 0.0 4.0 0.00 0.00 0.00 80 1008.6
20200712035903 72 5 0.0 4.0 0.00 0.00 0.00 81 1008.6
20200712035358 72 5 1.0 4.0 0.00 0.00 0.00 81 1008.7
20200712034846 72 5 0.0 3.0 0.00 0.00 0.00 81 1008.7
20200712034400 72 5 0.0 2.0 0.00 0.00 0.00 82 1008.7
20200712033856 73 5 0.0 2.0 0.00 0.00 0.00 82 1008.8
20200712033351 73 5 0.0 2.0 0.00 0.00 0.00 82 1008.7
20200712032845 73 5 0.0 2.0 0.00 0.00 0.00 81 1008.7
20200712032341 73 5 0.0 0.0 0.00 0.00 0.00 81 1008.7
20200712031839 73 5 0.0 0.0 0.00 0.00 0.00 81 1008.7
20200712031356 73 5 0.0 0.0 0.00 0.00 0.00 81 1008.7
20200712030850 73 5 0.0 0.0 0.00 0.00 0.00 81 1008.7
20200712030349 73 5 0.0 0.0 0.00 0.00 0.00 80 1008.7
20200712025903 73 5 0.0 1.0 0.00 0.00 0.00 80 1008.7
20200712025351 74 5 0.0 0.0 0.00 0.00 0.00 79 1008.7
20200712024901 74 5 0.0 0.0 0.00 0.00 0.00 79 1008.8
20200712024350 74 5 0.0 0.0 0.00 0.00 0.00 78 1008.8
20200712023847 74 5 0.0 0.0 0.00 0.00 0.00 78 1008.8
20200712023344 75 5 0.0 0.0 0.00 0.00 0.00 77 1008.7
20200712022848 75 5 0.0 0.0 0.00 0.00 0.00 77 1008.6
20200712022342 75 5 0.0 0.0 0.00 0.00 0.00 76 1008.7
20200712021857 75 5 0.0 0.0 0.00 0.00 0.00 76 1008.6
20200712021358 75 5 0.0 0.0 0.00 0.00 0.00 76 1008.6
20200712020854 75 5 0.0 0.0 0.00 0.00 0.00 75 1008.5
20200712020350 76 5 0.0 0.0 0.00 0.00 0.00 75 1008.6
20200712015841 76 5 0.0 0.0 0.00 0.00 0.00 74 1008.5
20200712015354 76 5 0.0 0.0 0.00 0.00 0.00 74 1008.5
20200712014850 76 5 0.0 1.0 0.00 0.00 0.00 74 1008.3
20200712014400 76 5 0.0 1.0 0.00 0.00 0.00 74 1008.3
20200712013856 76 5 0.0 0.0 0.00 0.00 0.00 73 1008.3
20200712013354 77 5 0.0 0.0 0.00 0.00 0.00 73 1008.3
20200712012904 77 5 0.0 2.0 0.00 0.00 0.00 72 1008.2
20200712012356 77 5 0.0 3.0 0.00 0.00 0.00 72 1008.2
20200712011848 77 5 0.0 8.0 0.00 0.00 0.00 72 1008.1
20200712011402 77 5 1.0 12.0 0.00 0.00 0.00 71 1008.1
20200712010859 77 5 1.0 12.0 0.00 0.00 0.00 71 1008.0
20200712010350 77 5 0.0 7.0 0.00 0.00 0.00 71 1008.0
20200712005842 77 5 1.0 11.0 0.00 0.00 0.00 71 1007.9
20200712005402 78 5 6.0 11.0 0.00 0.00 0.00 70 1007.9
20200712004841 78 5 3.0 9.0 0.00 0.00 0.00 70 1007.9
20200712004355 78 5 3.0 9.0 0.00 0.00 0.00 70 1007.7
20200712003848 78 5 3.0 9.0 0.00 0.00 0.00 69 1007.6
20200712003348 79 5 2.0 10.0 0.00 0.00 0.00 69 1007.6
20200712002902 79 5 3.0 14.0 0.00 0.00 0.00 69 1007.6
20200712002355 79 5 4.0 14.0 0.00 0.00 0.00 68 1007.6
20200712001847 80 5 1.0 10.0 0.00 0.00 0.00 68 1007.4
20200712001341 80 5 3.0 10.0 0.00 0.00 0.00 68 1007.3
20200712000858 80 5 1.0 7.0 0.00 0.00 0.00 67 1007.3
20200712000349 81 5 2.0 7.0 0.00 0.00 0.00 67 1007.2
20200711235844 81 5 0.0 7.0 0.00 0.00 0.00 66 1007.2
20200711235358 81 5 1.0 6.0 0.00 0.00 0.00 65 1007.1
20200711234853 81 360 1.0 9.0 0.00 0.00 0.00 65 1007.0
20200711234351 81 5 3.0 9.0 0.00 0.00 0.00 65 1006.9
20200711233849 82 5 0.0 8.0 0.00 0.00 0.00 65 1006.8
20200711233405 82 5 2.0 8.0 0.00 0.00 0.00 64 1006.9
20200711232849 83 5 1.0 8.0 0.00 0.00 0.00 63 1006.9
20200711232345 83 5 1.0 8.0 0.00 0.00 0.00 62 1006.9
20200711231852 83 5 0.0 9.0 0.00 0.00 0.00 62 1006.9
20200711231345 83 5 1.0 10.0 0.00 0.00 0.00 62 1006.9
20200711230900 83 5 3.0 10.0 0.00 0.00 0.00 62 1006.9
20200711230353 83 5 3.0 10.0 0.00 0.00 0.00 62 1006.9
20200711225838 83 5 2.0 15.0 0.00 0.02 0.00 62 1006.8
20200711225339 83 5 7.0 16.0 0.00 0.02 0.00 62 1006.7
20200711224853 83 5 6.0 16.0 0.00 0.02 0.00 62 1006.6
20200711224340 83 5 5.0 15.0 0.00 0.02 0.00 62 1006.6
20200711223854 84 5 2.0 9.0 0.00 0.02 0.00 62 1006.6
20200711223347 84 5 1.0 11.0 0.00 0.02 0.00 61 1006.5
20200711222858 85 5 2.0 14.0 0.00 0.02 0.00 60 1006.4
20200711222351 85 5 6.0 14.0 0.00 0.02 0.00 59 1006.3
20200711221847 86 5 4.0 13.0 0.00 0.02 0.00 59 1006.2
20200711221346 86 5 5.0 10.0 0.00 0.02 0.00 59 1006.1
20200711220841 86 5 0.0 11.0 0.00 0.02 0.00 60 1006.1
20200711220357 85 5 3.0 11.0 0.00 0.02 0.00 60 1006.0
20200711215900 86 5 4.0 12.0 0.00 0.02 0.00 59 1006.0
20200711215354 86 360 5.0 12.0 0.00 0.02 0.00 58 1006.0
20200711214851 86 5 2.0 11.0 0.00 0.02 0.00 59 1005.9
20200711214348 87 5 4.0 10.0 0.00 0.02 0.00 58 1006.0
20200711213841 87 5 2.0 8.0 0.00 0.02 0.00 59 1005.9
20200711213359 87 5 2.0 11.0 0.00 0.02 0.00 59 1006.0
20200711212844 86 5 3.0 16.0 0.00 0.02 0.00 59 1006.0
20200711212404 87 5 3.0 16.0 0.00 0.02 0.00 58 1006.1
20200711211847 86 5 1.0 10.0 0.00 0.02 0.00 60 1005.9
20200711211402 86 5 3.0 15.0 0.00 0.02 0.00 59 1006.0
20200711210847 87 5 4.0 11.0 0.00 0.02 0.00 58 1005.9
20200711210406 87 5 4.0 11.0 0.00 0.02 0.00 58 1005.8
20200711205853 87 5 3.0 11.0 0.00 0.09 0.00 58 1005.8
20200711205346 87 5 2.0 13.0 0.00 0.09 0.00 58 1005.8
20200711204841 87 5 3.0 13.0 0.00 0.09 0.00 56 1005.8
20200711204343 87 5 2.0 12.0 0.00 0.09 0.00 56 1005.8
20200711203845 87 5 2.0 13.0 0.00 0.09 0.00 56 1005.8
20200711203402 87 5 3.0 12.0 0.00 0.09 0.00 57 1005.9
20200711202846 86 5 1.0 17.0 0.00 0.09 0.00 59 1005.9
20200711202345 86 5 4.0 17.0 0.00 0.09 0.00 59 1005.9
20200711201902 86 5 5.0 14.0 0.00 0.09 0.00 58 1005.9
20200711201359 86 5 6.0 13.0 0.00 0.09 0.00 60 1005.9
20200711200859 86 5 4.0 13.0 0.00 0.09 0.00 61 1005.9
20200711200352 86 5 1.0 12.0 0.00 0.09 0.00 62 1005.9
20200711195901 85 360 3.0 12.0 0.00 0.23 0.00 62 1005.8
20200711195357 84 5 3.0 14.0 0.00 0.23 0.00 61 1005.8
20200711194847 85 5 3.0 14.0 0.00 0.23 0.00 60 1005.9
20200711194345 86 5 3.0 10.0 0.00 0.23 0.00 60 1005.9
20200711193902 86 5 1.0 9.0 0.00 0.23 0.00 60 1005.8
20200711193355 86 5 5.0 12.0 0.00 0.23 0.00 59 1005.7
20200711192847 86 5 3.0 11.0 0.00 0.23 0.00 59 1005.7
20200711192341 86 5 2.0 11.0 0.00 0.23 0.00 60 1005.8
20200711191855 86 5 1.0 11.0 0.00 0.23 0.00 59 1005.8
20200711191350 86 5 4.0 11.0 0.00 0.23 0.00 58 1005.8
20200711190844 87 5 2.0 8.0 0.00 0.23 0.00 58 1005.8
20200711190356 87 5 2.0 11.0 0.00 0.23 0.00 58 1005.9
20200711185849 87 5 3.0 13.0 0.00 0.46 0.00 57 1005.8
20200711185400 88 5 5.0 13.0 0.00 0.46 0.00 55 1005.8
20200711184849 89 5 7.0 12.0 0.00 0.46 0.00 54 1005.8
20200711184346 88 5 1.0 8.0 0.00 0.46 0.00 58 1005.8
20200711183900 88 5 1.0 11.0 0.00 0.46 0.00 57 1005.9
20200711183400 87 5 5.0 11.0 0.00 0.46 0.00 58 1005.9
20200711182853 87 5 2.0 7.0 0.00 0.46 0.00 58 1006.0
20200711182349 87 5 2.0 8.0 0.00 0.46 0.00 59 1006.1
20200711181846 87 5 2.0 8.0 0.00 0.46 0.00 60 1006.3
20200711181351 86 5 3.0 10.0 0.00 0.46 0.00 60 1006.3
20200711180901 86 5 4.0 10.0 0.00 0.46 0.00 61 1006.3
20200711180358 86 5 2.0 7.0 0.00 0.46 0.00 63 1006.3
20200711175848 85 5 2.0 9.0 0.00 0.52 0.00 63 1006.4
20200711175344 85 5 4.0 9.0 0.00 0.52 0.00 65 1006.5
20200711174841 85 5 0.0 7.0 0.00 0.52 0.00 68 1006.5
20200711174357 84 5 2.0 7.0 0.00 0.52 0.00 67 1006.5
20200711173851 85 360 1.0 10.0 0.00 0.52 0.00 67 1006.6
20200711173349 85 5 0.0 10.0 0.00 0.52 0.00 66 1006.6
20200711172845 85 5 2.0 10.0 0.00 0.52 0.00 66 1006.7
20200711172356 85 5 3.0 10.0 0.00 0.52 0.00 66 1006.8
20200711171847 85 5 4.0 8.0 0.00 0.52 0.00 67 1006.8
20200711171357 85 5 1.0 8.0 0.00 0.52 0.00 68 1006.9
20200711170856 85 5 2.0 8.0 0.00 0.52 0.00 66 1007.0
20200711170354 85 5 2.0 8.0 0.00 0.52 0.00 66 1007.0
20200711165902 85 5 4.0 8.0 0.00 0.67 0.00 66 1007.1
20200711165352 85 5 2.0 6.0 0.00 0.67 0.00 66 1007.2
20200711164847 85 5 0.0 6.0 0.00 0.67 0.00 67 1007.2
20200711164342 85 5 0.0 0.0 0.00 0.67 0.00 67 1007.3
20200711163855 85 5 0.0 0.0 0.00 0.67 0.00 67 1007.3
20200711163349 85 5 0.0 6.0 0.00 0.67 0.00 68 1007.4
20200711162900 85 5 0.0 8.0 0.00 0.67 0.00 66 1007.4
20200711162357 85 5 0.0 7.0 0.00 0.67 0.00 67 1007.4
20200711161850 84 5 1.0 9.0 0.00 0.67 0.00 68 1007.4
20200711161346 84 5 2.0 9.0 0.00 0.67 0.00 69 1007.4
20200711160859 84 5 1.0 7.0 0.00 0.67 0.00 69 1007.5
20200711160355 83 5 2.0 7.0 0.00 0.67 0.00 71 1007.5
20200711155846 83 5 0.0 5.0 0.00 0.78 0.00 69 1007.5
20200711155401 83 5 1.0 5.0 0.00 0.78 0.00 69 1007.6
20200711154856 84 5 0.0 7.0 0.00 0.78 0.00 70 1007.6
20200711154346 83 5 1.0 7.0 0.00 0.78 0.00 70 1007.6
20200711153856 83 5 0.0 7.0 0.00 0.78 0.00 69 1007.6
20200711153353 83 5 1.0 9.0 0.00 0.78 0.00 70 1007.6
20200711152845 83 5 2.0 9.0 0.00 0.78 0.00 72 1007.5
20200711152341 83 5 0.0 8.0 0.00 0.78 0.00 72 1007.6
20200711151900 82 5 1.0 6.0 0.00 0.78 0.00 71 1007.6
20200711151354 82 5 0.0 6.0 0.00 0.78 0.00 73 1007.6
20200711150845 82 5 1.0 6.0 0.00 0.78 0.00 73 1007.7
20200711150343 82 5 0.0 5.0 0.00 0.78 0.00 74 1007.6
20200711145900 82 5 0.0 6.0 0.00 0.78 0.00 75 1007.6
20200711145354 81 5 1.0 6.0 0.00 0.78 0.00 76 1007.5
20200711144850 81 5 0.0 10.0 0.00 0.78 0.00 75 1007.5
20200711144346 81 5 3.0 10.0 0.00 0.78 0.00 75 1007.5
20200711143845 81 5 0.0 6.0 0.00 0.78 0.00 75 1007.5
20200711143404 81 5 0.0 6.0 0.00 0.78 0.00 75 1007.5
20200711142853 82 5 1.0 6.0 0.00 0.78 0.00 75 1007.5
20200711142351 81 5 0.0 6.0 0.00 0.78 0.00 76 1007.5
20200711141846 81 5 2.0 6.0 0.00 0.78 0.00 76 1007.5
20200711141402 81 5 0.0 2.0 0.00 0.78 0.00 76 1007.5
20200711140857 81 5 0.0 4.0 0.00 0.78 0.00 77 1007.5
20200711140352 81 5 0.0 5.0 0.00 0.78 0.00 77 1007.6
20200711135842 81 5 2.0 5.0 0.00 0.78 0.00 77 1007.5
20200711135401 81 5 0.0 6.0 0.00 0.78 0.00 80 1007.5
20200711134853 80 5 0.0 6.0 0.00 0.78 0.00 80 1007.5
20200711134349 80 5 2.0 6.0 0.00 0.78 0.00 80 1007.5
20200711133901 79 5 1.0 4.0 0.00 0.78 0.00 81 1007.5
20200711133356 79 5 0.0 3.0 0.00 0.78 0.00 82 1007.6
20200711132902 79 5 0.0 6.0 0.00 0.78 0.00 84 1007.5
20200711132354 78 5 2.0 6.0 0.00 0.78 0.00 85 1007.6
20200711131849 78 5 1.0 4.0 0.00 0.78 0.00 85 1007.5
20200711131345 77 5 1.0 4.0 0.00 0.78 0.00 86 1007.4
20200711130840 77 5 0.0 0.0 0.00 0.78 0.00 88 1007.3
20200711130407 77 5 0.0 0.0 0.00 0.78 0.00 88 1007.4
20200711125843 76 5 0.0 0.0 0.00 0.78 0.00 89 1007.3
20200711125400 76 5 0.0 0.0 0.00 0.78 0.00 90 1007.2
20200711124854 76 5 0.0 0.0 0.00 0.78 0.00 91 1007.3
20200711124350 75 5 0.0 0.0 0.00 0.78 0.00 92 1007.2
20200711123902 75 5 0.0 0.0 0.00 0.78 0.00 93 1007.2
20200711123401 75 5 0.0 0.0 0.00 0.78 0.00 95 1007.2
20200711122851 74 5 0.0 0.0 0.00 0.78 0.00 96 1007.2
20200711122349 74 5 0.0 0.0 0.00 0.78 0.00 96 1007.2
20200711121845 73 5 0.0 0.0 0.00 0.78 0.00 97 1007.1
20200711121402 73 5 0.0 4.0 0.00 0.78 0.00 97 1007.1
20200711120901 73 5 0.0 4.0 0.00 0.78 0.00 98 1007.1
20200711120355 72 5 0.0 0.0 0.00 0.78 0.00 98 1007.0
20200711115847 72 5 0.0 0.0 0.00 0.78 0.00 98 1007.1
20200711115346 72 5 0.0 0.0 0.00 0.78 0.00 98 1007.1
20200711114843 71 5 0.0 0.0 0.00 0.78 0.00 98 1007.2
20200711114358 71 5 0.0 0.0 0.00 0.78 0.00 98 1007.2
20200711113855 71 5 0.0 0.0 0.00 0.78 0.00 98 1007.1
20200711113354 71 5 0.0 0.0 0.00 0.78 0.00 98 1007.1
20200711112849 71 5 0.0 0.0 0.00 0.78 0.00 98 1007.0
20200711112348 71 5 0.0 0.0 0.00 0.78 0.00 98 1007.1
20200711111843 70 5 0.0 0.0 0.00 0.78 0.00 98 1007.1
20200711111359 70 5 0.0 0.0 0.00 0.78 0.00 98 1007.2
20200711110853 70 5 0.0 0.0 0.00 0.78 0.00 98 1007.2
20200711110358 70 5 0.0 0.0 0.00 0.78 0.00 98 1007.1
20200711105845 70 5 0.0 0.0 0.00 0.78 0.00 98 1007.1
20200711105341 70 5 0.0 0.0 0.00 0.78 0.00 98 1007.3
20200711104857 70 5 0.0 0.0 0.00 0.78 0.00 98 1007.3
20200711104354 70 5 0.0 0.0 0.00 0.78 0.00 98 1007.3
20200711103846 69 5 0.0 0.0 0.00 0.78 0.00 98 1007.1
20200711103400 69 5 0.0 0.0 0.00 0.78 0.00 98 1007.0
20200711102857 69 5 0.0 0.0 0.00 0.78 0.00 98 1007.0
20200711102347 69 5 0.0 0.0 0.00 0.78 0.00 98 1007.0
20200711101841 69 5 0.0 0.0 0.00 0.78 0.00 98 1006.9
20200711101342 68 5 0.0 0.0 0.00 0.78 0.00 98 1007.0
20200711100858 68 5 0.0 0.0 0.00 0.78 0.00 97 1006.9
20200711100349 68 5 0.0 0.0 0.00 0.78 0.00 97 1007.0
20200711095858 68 5 0.0 0.0 0.00 0.78 0.00 97 1006.9
20200711095352 68 5 0.0 0.0 0.00 0.78 0.00 97 1006.8
20200711094847 68 5 0.0 0.0 0.00 0.78 0.00 97 1006.8
20200711094403 68 5 0.0 0.0 0.00 0.78 0.00 97 1006.8
20200711093857 68 5 0.0 0.0 0.00 0.78 0.00 97 1006.9
20200711093356 68 5 0.0 0.0 0.00 0.78 0.00 97 1006.8
20200711092850 68 5 0.0 0.0 0.00 0.78 0.00 97 1006.7
20200711092344 68 5 0.0 0.0 0.00 0.78 0.00 97 1006.6
20200711091858 68 5 0.0 0.0 0.00 0.78 0.00 97 1006.6
20200711091350 69 5 0.0 0.0 0.00 0.78 0.00 97 1006.6
20200711090843 69 5 0.0 0.0 0.00 0.78 0.00 97 1006.7
20200711090403 69 5 0.0 0.0 0.00 0.78 0.00 97 1006.8
20200711085849 69 5 0.0 0.0 0.00 0.78 0.00 97 1006.6
20200711085400 69 5 0.0 0.0 0.00 0.78 0.00 97 1006.6
20200711084852 69 5 0.0 0.0 0.00 0.78 0.00 97 1006.6
20200711084342 69 5 0.0 0.0 0.00 0.78 0.00 97 1006.7
20200711083900 69 5 0.0 0.0 0.00 0.78 0.00 97 1006.7
20200711083349 69 5 0.0 0.0 0.00 0.78 0.00 97 1006.7
20200711082842 69 5 0.0 0.0 0.00 0.78 0.00 97 1006.6
20200711082356 69 5 0.0 0.0 0.00 0.78 0.00 97 1006.7
20200711081851 69 5 0.0 0.0 0.00 0.78 0.00 97 1006.8
20200711081344 69 5 0.0 0.0 0.00 0.78 0.00 97 1006.8
20200711080859 69 5 0.0 0.0 0.00 0.78 0.00 97 1006.7
20200711080353 69 5 0.0 0.0 0.00 0.78 0.00 97 1006.8
20200711075901 69 5 0.0 0.0 0.00 0.78 0.00 97 1006.8
20200711075349 69 5 0.0 0.0 0.00 0.78 0.00 97 1006.9
20200711074856 69 5 0.0 0.0 0.00 0.78 0.00 97 1006.9
20200711074352 69 5 0.0 0.0 0.00 0.78 0.00 97 1006.9
20200711073843 69 5 0.0 0.0 0.00 0.78 0.00 97 1007.0
20200711073403 69 5 0.0 0.0 0.00 0.78 0.00 97 1007.1
20200711072853 69 5 0.0 0.0 0.00 0.78 0.00 97 1007.0
20200711072347 69 5 0.0 0.0 0.00 0.78 0.00 96 1007.0
20200711071847 69 5 0.0 0.0 0.00 0.78 0.00 96 1007.0
20200711071344 69 5 0.0 0.0 0.00 0.78 0.00 96 1007.1
20200711070859 70 5 0.0 0.0 0.00 0.78 0.00 96 1007.1
20200711070356 70 5 0.0 0.0 0.00 0.78 0.00 96 1007.2
20200711065841 70 5 0.0 0.0 0.00 0.78 0.00 96 1007.3
20200711065359 70 5 0.0 0.0 0.00 0.78 0.00 96 1007.3
20200711064852 70 5 0.0 0.0 0.00 0.78 0.00 96 1007.4
20200711064347 70 5 0.0 0.0 0.00 0.78 0.00 96 1007.4
20200711063902 70 5 0.0 0.0 0.00 0.78 0.00 96 1007.4
20200711063354 70 5 0.0 0.0 0.00 0.78 0.00 96 1007.5